Regional Weather Roundup
Issued by NWS

Home | Current Version | Previous Version | Graphics & Text | Print | Product List | Glossary On
Versions: 1 2 3 4 5 6 7 8 9 10 11 12 13 14 15 16 17 18 19 20 21 22 23 24 25 26 27 28 29 30 31 32 33 34 35 36 37 38 39 40 41 42 43 44 45 46 47 48 49 50
000
ASUS43 KLSX 230710
RWRMO

WEATHER SUMMARY FOR MISSOURI
NATIONAL WEATHER SERVICE SPRINGFIELD MO
200 AM CDT SUN APR 23 2017

NOTE: "FAIR" INDICATES FEW OR NO CLOUDS BELOW 12,000 FEET WITH NO
       SIGNIFICANT WEATHER AND/OR OBSTRUCTIONS TO VISIBILITY.
       CURRENT SKY AND/OR WEATHER CONDITIONS ARE NOT AVAILABLE FOR
       CHILLICOTHE AND FARMINGTON.

MOZ001>031-035>038-043-044-053-054-230800-
...NORTHERN AND WESTERN MISSOURI...

CITY           SKY/WX    TMP DP  RH WIND       PRES   REMARKS
KANSAS CTY INT CLEAR     49  30  48 N5        30.18S
KANSAS C DTWN  CLEAR     50  34  54 NW3       30.17F
LEE`S SUMMIT   CLEAR     49  32  52 N3        30.17F
ST JOSEPH      CLEAR     37  35  92 N3        30.19F
CHILLICOTHE      N/A     41  35  79 NW3       30.19S
KIRKSVILLE     CLEAR     40  34  79 N5        30.16F

$$
MOZ066>068-077>081-088>096-101>105-230800-
...SOUTHWEST MISSOURI...

CITY           SKY/WX    TMP DP  RH WIND       PRES   REMARKS
SPRINGFIELD    CLOUDY    45  42  89 NW8       30.08F
JOPLIN         PTCLDY    43  42  97 NW6       30.13F
BRANSON        CLOUDY    46  45  93 CALM      30.07F

$$
MOZ032>034-039>042-045>050-055>058-069>072-230800-
...CENTRAL MISSOURI...

CITY           SKY/WX    TMP DP  RH WIND       PRES   REMARKS
COLUMBIA       CLEAR     45  36  70 N9        30.12F
JEFFERSON CITY CLEAR     51  35  54 N7        30.12S
ROLLA          CLEAR     43  36  76 N5        30.07F
WHITEMAN AFB   CLEAR     43  37  79 N5        30.14F
OSAGE BEACH    CLEAR     46  37  71 N6        30.11S

$$
MOZ051-052-059>065-230800-
...EAST CENTRAL MISSOURI...

CITY           SKY/WX    TMP DP  RH WIND       PRES   REMARKS
ST LOUIS INTL  CLEAR     50  34  54 NE9       30.09F
SPIRIT OF STL  CLEAR     42  38  85 CALM      30.09F
ST CHARLES     CLEAR     49  34  56 NE13      30.09F

$$
MOZ072>076-082>087-097>100-106>115-230800-
...SOUTH CENTRAL AND SOUTHEAST MISSOURI...

CITY           SKY/WX    TMP DP  RH WIND       PRES   REMARKS
CAPE GIRARDEAU LGT RAIN  50  45  83 NW5       29.98F
FARMINGTON     CLOUDY    47  39  74 N6        30.04F
POPLAR BLUFF   LGT RAIN  50  46  86 N9        29.99F
WEST PLAINS    CLOUDY    49  41  74 N7        30.04F

$$




USA.gov is the U.S. government's official web portal to all federal, state and local government web resources and services.